Location: Mentone
(34.5413°N, 85.5351°W)
Time: 20:40:42
(UTC-06:00)

Vanguard 2 Rocket - Visible Passes

Search period start: 23 November 2014 00:00
Search period end: 03 December 2014 00:00
Orbit: 553 x 3335 km, 32.9° (Epoch: 23 November)

Date Brightness Start Highest point End Pass type
(mag) Time Alt. Az. Time Alt. Az. Time Alt. Az.
23 Nov 8.7 18:05:07 10° W 18:22:49 84° S 18:28:48 34° E visible
23 Nov 8.9 20:25:09 10° W 20:34:42 46° W 20:34:42 46° W visible
24 Nov 9.1 17:03:21 10° WSW 17:22:41 81° S 17:33:42 14° E visible
24 Nov 8.1 19:23:33 10° W 19:39:04 78° SSW 19:39:36 76° SSE visible
24 Nov 10.1 21:43:11 10° W 21:45:30 16° W 21:45:30 16° W visible
25 Nov 8.6 18:21:44 10° W 18:39:25 83° S 18:44:31 41° ESE visible
25 Nov 9.2 20:41:47 10° W 20:50:25 38° W 20:50:25 38° W visible
26 Nov 9.1 17:19:53 10° W 17:39:16 84° S 17:49:27 17° E visible
26 Nov 8.4 19:40:10 10° W 19:55:22 68° SSW 19:55:22 68° SSW visible
26 Nov 10.4 22:00:24 10° W 22:01:16 12° W 22:01:16 12° W visible
27 Nov 8.5 18:38:22 10° W 18:55:56 78° SSW 19:00:21 46° ESE visible
27 Nov 9.5 20:58:35 10° W 21:06:15 30° WSW 21:06:15 30° WSW visible
28 Nov 9.1 17:36:30 10° W 17:55:51 83° S 18:05:22 21° E visible
28 Nov 8.7 19:56:48 10° W 20:11:17 55° SW 20:11:17 55° SW visible
29 Nov 9.4 16:34:48 10° W 16:55:16 85° S 17:08:56 10° E visible
29 Nov 8.7 18:54:58 10° W 19:12:16 68° SSW 19:16:21 46° SE visible
29 Nov 9.9 21:15:46 10° W 21:22:17 23° WSW 21:22:17 23° WSW visible
30 Nov 9.1 17:53:07 10° W 18:12:21 78° SSW 18:21:30 22° ESE visible
30 Nov 9.1 20:13:35 10° W 20:27:24 41° SW 20:27:25 41° SW visible
01 Dec 9.4 16:51:25 10° W 17:11:50 83° S 17:25:29 10° ESE visible
01 Dec 8.9 19:11:35 10° W 19:28:20 56° SSW 19:32:38 40° SSE visible
01 Dec 10.2 21:33:58 10° W 21:38:35 16° WSW 21:38:35 16° WSW visible
02 Dec 9.2 18:09:43 10° W 18:28:38 68° SSW 18:37:56 21° SE visible
02 Dec 9.5 20:30:46 10° W 20:42:53 29° SW 20:43:53 29° SW visible
